Regional Weather Roundup
Issued by NWS

Home | Current Version | Previous Version | Graphics & Text | Print | Product List | Glossary On
Versions: 1 2 3 4 5 6 7 8 9 10 11 12 13 14 15 16 17 18 19 20 21 22 23 24 25 26 27 28 29 30 31 32 33 34 35 36 37 38 39 40 41 42 43 44 45 46 47 48 49 50
000
ASUS43 KFSD 222102
RWRSD

WEATHER ROUNDUP FOR SOUTH DAKOTA
NATIONAL WEATHER SERVICE SIOUX FALLS SD
400 PM CDT FRI MAY 22 2015

NOTE: "FAIR" INDICATES FEW OR NO CLOUDS BELOW 12,000 FEET WITH NO
SIGNIFICANT WEATHER AND/OR OBSTRUCTIONS TO VISIBILITY.


SDZ001>005-009-010-012>017-222200-
NORTHWEST AND NORTH CENTRAL SOUTH DAKOTA

CITY           SKY/WX    TMP DP  RH WIND       PRES   REMARKS
BUFFALO          N/A     65  42  43 S16G28    29.99S
MOBRIDGE       MOSUNNY   73  39  29 S16       30.08F
$$

SDZ012>016-024>037-041>051-057-063-072>074-222200-
SOUTHWEST AND SOUTH CENTRAL SOUTH DAKOTA

CITY           SKY/WX    TMP DP  RH WIND       PRES   REMARKS
RAPID CTY ARPT CLOUDY    62  43  49 SE16G23   30.07F
PIERRE         CLOUDY    70  38  31 S18G26    30.10F
CUSTER         CLOUDY    49  36  61 SE13G20   30.09F
ELLSWORTH AFB  CLOUDY    61  43  51 S18       30.06F
PHILIP         CLOUDY    66  39  37 SE16G24   30.09F
PINE RIDGE     CLOUDY    53  40  61 SE15G23   30.10F
WINNER         FAIR      65  39  38 S16G31    30.15S
$$

SDZ004>011-016>023-039-040-222200-
NORTHEAST SOUTH DAKOTA

CITY           SKY/WX    TMP DP  RH WIND       PRES   REMARKS
ABERDEEN       PTSUNNY   77  35  21 VRB3      30.12F
WATERTOWN      PTSUNNY   74  33  22 CALM      30.16F
BROOKINGS      PTSUNNY   73  34  23 S5        30.17F
$$

SDZ017-020-022-023-036>040-048>070-222200-
SOUTHEAST SOUTH DAKOTA

CITY           SKY/WX    TMP DP  RH WIND       PRES   REMARKS
SIOUX FALLS    CLOUDY    71  42  35 S10       30.16F
HURON          PTSUNNY   74  35  24 S10       30.14F
CHAMBERLAIN    CLOUDY    66  40  38 S16G22    30.15S
MITCHELL       CLOUDY    73  38  27 S16G23    30.16F
YANKTON        CLOUDY    70  37  30 S15G22    30.17S
$$

ABBREVIATIONS USED IN REMARKS
   TC - TEMPERATURE IN CELSIUS
  WCI - WIND CHILL INDEX
   HX - HEAT INDEX
  VSB - VISIBILITY




USA.gov is the U.S. government's official web portal to all federal, state and local government web resources and services.